Regional Weather Roundup
Issued by NWS

Home | Current Version | Previous Version | Graphics & Text | Print | Product List | Glossary On
Versions: 1 2 3 4 5 6 7 8 9 10 11 12 13 14 15 16 17 18 19 20 21 22 23 24 25 26 27 28 29 30 31 32 33 34 35 36 37 38 39 40 41 42 43 44 45 46 47 48 49 50
000
ASUS43 KBIS 201920
RWRND

NORTH DAKOTA REGIONAL WEATHER ROUNDUP
NATIONAL WEATHER SERVICE BISMARCK ND
200 PM CDT WED AUG 20 2014

NOTE: "FAIR" INDICATES FEW OR NO CLOUDS BELOW 12,000 FEET WITH NO
SIGNIFICANT WEATHER AND/OR OBSTRUCTIONS TO VISIBILITY.


NDZ001>003-009>011-017-202000-
NORTHWEST NORTH DAKOTA

CITY           SKY/WX    TMP DP  RH WIND       PRES   REMARKS
WILLISTON      CLOUDY    78  64  61 S9        29.72R
MINOT          PTSUNNY   82  66  58 E8        29.71S
MINOT AFB      PTSUNNY   84  68  59 E15       29.71R
$$

NDZ018>021-031>035-040>046-202000-
SOUTHWEST NORTH DAKOTA

CITY           SKY/WX    TMP DP  RH WIND       PRES   REMARKS
BISMARCK       CLOUDY    81  67  62 S7        29.72S
DICKINSON      LGT RAIN  71  67  87 N5        29.71S
GARRISON         N/A     74  66  76 SE10      29.73S
HETTINGER ARPT CLOUDY    76  64  66 SE9       29.72R
$$

NDZ004>008-012>016-024-026-027-054-202000-
NORTHEAST NORTH DAKOTA

CITY           SKY/WX    TMP DP  RH WIND       PRES   REMARKS
GRAND FORKS    PTSUNNY   82  67  60 SE13      29.77F
GRND FRKS AFB  PTSUNNY   83  69  64 SE15      29.78F
DEVILS LAKE    PTSUNNY   82  64  54 S17       29.75S
$$

NDZ022-023-025-028>030-036>039-047>053-202000-
SOUTHEAST NORTH DAKOTA

CITY           SKY/WX    TMP DP  RH WIND       PRES   REMARKS
FARGO          CLOUDY    82  66  58 SE14      29.78S
JAMESTOWN      PTSUNNY   79  65  62 SE13      29.76S
$$



USA.gov is the U.S. government's official web portal to all federal, state and local government web resources and services.